Westhampton Beach, NY

8:14 AM EST on December 08, 2019 (GMT -0500)
The Gabreski

Weather History for KFOK - October, 2019

Change the Weather History Date:

Tuesday, October 22, 2019

  Actual Average Record
Temperature  
Mean Temperature 52 °F -  
Max Temperature 59 °F 58 °F 73 °F (2017)
Min Temperature 44 °F 37 °F 27 °F (2018)
Degree Days  
Heating Degree Days 14    
Growing Degree Days 2 (Base 50)    
Moisture  
Dew Point 54 °F    
Average Humidity 94    
Maximum Humidity 100    
Minimum Humidity 87    
Precipitation  
Precipitation 0.04 in - - ()
Sea Level Pressure  
Sea Level Pressure 30.03 in    
Wind  
Wind Speed 6 mph (ENE)    
Max Wind Speed 14 mph    
Max Gust Speed 22 mph    
Visibility 8 miles    
Events Rain    
Averages and records for this station are not official NWS values.
T = Trace of Precipitation, MM = Missing Value Source: NWS Daily Summary

Daily Weather History Graph

Daily Weather History Graph

Search for Another Location

Airport or City:

Astronomy

Oct. 22, 2019 Rise Set
Actual Time 7:09 AM EDT 6:00 PM EDT
Civil Twilight 6:41 AM EDT 6:27 PM EDT
Nautical Twilight 6:09 AM EDT 6:59 PM EDT
Astronomical Twilight 5:37 AM EDT 7:31 PM EDT
Moon 12:12 AM EDT (10/22) 3:10 PM EDT (10/22)
Length of Visible Light 11h 46m
Length of Day
10h 50m
Last Quarter, 37% of the Moon is Illuminated
Oct 22
Last Quarter
Oct 27
New
Nov 4
First Quarter
Nov 12
Full
Nov 19
Last Quarter

Hourly Weather History & Observations

Time (EDT) Temp. Windchill Dew Point Humidity Pressure Visibility Wind Dir Wind Speed Gust Speed Precip Events Conditions
12:53 AM 44.1 °F - 43.0 °F 96% 30.15 in 10.0 mi Calm Calm - N/A   Clear
1:53 AM 44.1 °F 42.5 °F 42.1 °F 93% 30.14 in 10.0 mi NNW 3.5 mph - N/A   Clear
2:53 AM 46.9 °F - 44.1 °F 90% 30.10 in 10.0 mi ENE 5.8 mph - N/A   Clear
3:38 AM 52.0 °F - 50.0 °F 93% 30.11 in 10.0 mi NNE 5.8 mph - N/A   Mostly Cloudy
3:53 AM 53.1 °F - 50.0 °F 89% 30.09 in 10.0 mi NE 6.9 mph - N/A   Overcast
4:53 AM 53.1 °F - 50.0 °F 89% 30.10 in 10.0 mi NE 5.8 mph - N/A   Overcast
5:53 AM 53.1 °F - 51.1 °F 93% 30.11 in 10.0 mi NNE 5.8 mph - N/A   Overcast
6:53 AM 53.6 °F - 51.8 °F 94% 30.09 in 10.0 mi ENE 5.8 mph - N/A   Overcast
7:53 AM 54.0 °F - 52.0 °F 93% 30.10 in 10.0 mi ENE 5.8 mph - N/A   Overcast
8:40 AM 55.0 °F - 52.0 °F 89% 30.12 in 10.0 mi NE 5.8 mph - N/A   Overcast
8:53 AM 55.4 °F - 51.8 °F 88% 30.12 in 10.0 mi NE 5.8 mph - N/A   Overcast
9:18 AM 55.0 °F - 52.0 °F 89% 30.11 in 10.0 mi NE 5.8 mph - N/A   Overcast
9:53 AM 55.4 °F - 53.6 °F 94% 30.08 in 10.0 mi East 8.1 mph - N/A   Overcast
10:17 AM 57.0 °F - 54.0 °F 89% 30.07 in 10.0 mi East 9.2 mph - N/A   Overcast
10:41 AM 57.0 °F - 55.0 °F 93% 30.09 in 10.0 mi East 6.9 mph - N/A   Overcast
11:53 AM 57.0 °F - 55.0 °F 93% 30.10 in 4.0 mi Variable 4.6 mph - N/A   Overcast
12:04 PM 57.2 °F - 55.4 °F 94% 30.08 in 2.5 mi ESE 5.8 mph - N/A   Overcast
12:34 PM 57.0 °F - 55.9 °F 96% 30.07 in 4.0 mi East 5.8 mph - 0.00 in   Overcast
12:53 PM 57.0 °F - 55.9 °F 96% 30.07 in 3.0 mi East 8.1 mph - 0.00 in   Overcast
1:23 PM 57.9 °F - 57.0 °F 97% 30.05 in 2.5 mi ENE 9.2 mph - N/A   Overcast
1:50 PM 57.2 °F - 57.2 °F 100% 30.02 in 3.0 mi East 6.9 mph - N/A   Overcast
1:53 PM 57.9 °F - 55.9 °F 93% 30.02 in 4.0 mi East 6.9 mph - N/A   Overcast
2:49 PM 59.0 °F - 55.4 °F 88% 29.99 in 10.0 mi East 11.5 mph 18.4 mph N/A   Overcast
2:53 PM 59.0 °F - 55.0 °F 87% 29.98 in 10.0 mi East 12.7 mph 19.6 mph N/A   Overcast
3:53 PM 57.9 °F - 54.0 °F 87% 29.96 in 10.0 mi East 11.5 mph 20.7 mph N/A   Overcast
4:01 PM 57.0 °F - 54.0 °F 89% 29.96 in 10.0 mi East 13.8 mph 21.9 mph N/A   Overcast
4:53 PM 57.0 °F - 55.0 °F 93% 29.96 in 10.0 mi East 10.4 mph 19.6 mph N/A   Overcast
5:53 PM 57.2 °F - 55.4 °F 94% 29.93 in 10.0 mi East 11.5 mph 20.7 mph N/A   Overcast
6:53 PM 57.0 °F - 55.9 °F 96% 29.93 in 10.0 mi East 8.1 mph 18.4 mph N/A   Overcast
7:51 PM 57.2 °F - 57.2 °F 100% 29.92 in 10.0 mi East 11.5 mph 20.7 mph N/A   Overcast
7:53 PM 57.9 °F - 57.0 °F 97% 29.92 in 10.0 mi East 12.7 mph 19.6 mph N/A   Overcast
8:26 PM 57.0 °F - 57.0 °F 100% 29.90 in 2.5 mi East 10.4 mph 19.6 mph N/A   Overcast
8:53 PM 57.2 °F - 57.2 °F 100% 29.90 in 2.0 mi East 11.5 mph - N/A Rain Light Rain
9:53 PM 57.9 °F - 57.9 °F 100% 29.91 in 1.8 mi East 6.9 mph - 0.01 in Rain Light Rain
10:04 PM 57.9 °F - 57.9 °F 100% 29.91 in 2.0 mi East 4.6 mph - 0.01 in Rain Light Rain
10:24 PM 57.9 °F - 57.9 °F 100% 29.90 in 4.0 mi East 6.9 mph - 0.02 in Rain Light Rain
10:53 PM 59.0 °F - 59.0 °F 100% 29.87 in 4.0 mi East 6.9 mph - 0.03 in Rain Light Rain